EW9828 Weather Reports


time (UTC)temp
C
wind
direction
speed
KPH
gust
KPH
rain 1hr
cm
rain 24hr
cm
rain mn
cm
humidity
%
barometer
mb
20260502183039 13 12 0.0 0.0 0.00 0.00 0.00 56 1012.3
20260502181536 13 12 0.0 0.0 0.00 0.00 0.00 56 1012.3
20260502163037 13 12 0.0 0.0 0.00 0.00 0.00 61 1013.7
20260502161528 13 11 0.0 0.0 0.00 0.00 0.00 62 1014.2
20260502151520 12 11 0.0 0.0 0.00 0.00 0.00 70 1013.5
20260502123106 11 11 0.0 0.0 0.00 0.00 0.00 81 1013.4
20260502121557 11 11 0.0 0.0 0.00 0.00 0.00 83 1013.3
20260502114558 10 11 0.0 0.0 0.00 0.00 0.00 83 1013.1
20260502113055 10 11 0.0 0.0 0.00 0.00 0.00 82 1013.0
20260502111555 10 11 0.0 0.0 0.00 0.00 0.00 80 1012.8
20260502110059 10 11 0.0 0.0 0.00 0.00 0.00 79 1013.0
20260502104556 11 11 0.0 0.0 0.00 0.00 0.00 78 1012.9
20260502103058 11 11 0.0 0.0 0.00 0.00 0.00 78 1013.0
20260502101615 11 11 0.0 0.0 0.00 0.00 0.00 78 1013.0
20260502100112 11 11 0.0 0.0 0.00 0.00 0.00 78 1012.9
20260502070049 10 11 0.0 0.0 0.00 0.00 0.00 89 1011.7
20260502064543 10 11 0.0 0.0 0.00 0.00 0.00 89 1011.7
20260502063039 10 11 0.0 0.0 0.00 0.00 0.00 89 1011.8
20260502061536 10 11 0.0 0.0 0.00 0.00 0.00 89 1012.0
20260502060036 10 11 0.0 0.0 0.00 0.00 0.00 89 1011.9
20260502054536 10 11 0.0 0.0 0.00 0.00 0.00 88 1012.0
20260502053032 10 11 0.0 0.0 0.00 0.00 0.00 88 1012.1
20260502051534 10 11 0.0 0.0 0.00 0.00 0.00 87 1012.4
20260502050029 10 11 0.0 0.0 0.00 0.00 0.00 87 1012.8
20260502044527 10 11 0.0 0.0 0.00 0.00 0.00 86 1012.6
20260502043025 10 11 0.0 0.0 0.00 0.00 0.00 85 1012.3
20260502041524 11 11 0.0 0.0 0.00 0.00 0.00 84 1012.3
20260502040033 11 11 0.0 0.0 0.00 0.00 0.00 84 1012.5
20260502034521 11 11 0.0 0.0 0.00 0.00 0.00 82 1012.6
20260502033021 11 11 0.0 0.0 0.00 0.00 0.00 81 1012.4
20260502031520 11 11 0.0 0.0 0.00 0.00 0.00 81 1012.5
20260502030020 12 11 0.0 0.0 0.00 0.00 0.00 80 1012.5
20260502024534 12 11 0.0 0.0 0.00 0.00 0.00 78 1012.4
20260502023019 12 11 0.0 0.0 0.00 0.00 0.00 77 1012.5
20260502021517 12 11 0.0 0.0 0.00 0.00 0.00 75 1012.2
20260502020017 13 11 0.0 0.0 0.00 0.00 0.00 74 1012.0
20260502014526 13 11 0.0 0.0 0.00 0.00 0.00 72 1012.2
20260502013018 13 11 0.0 0.0 0.00 0.00 0.00 71 1012.1
20260502011516 14 11 0.0 0.0 0.00 0.00 0.00 69 1011.9
20260502010015 14 12 0.0 0.0 0.00 0.00 0.00 68 1011.5
20260502004515 15 12 0.0 0.0 0.00 0.00 0.00 66 1011.3
20260502003015 15 12 0.0 0.0 0.00 0.00 0.00 65 1011.1
20260502001514 16 15 0.0 0.0 0.00 0.00 0.00 63 1010.7
20260502000014 16 15 0.0 0.0 0.00 0.00 0.00 61 1010.6
20260501234514 16 15 0.0 0.0 0.00 0.00 0.00 58 1010.5
20260501233013 17 15 0.0 0.0 0.00 0.00 0.00 57 1010.6
20260501231516 17 15 0.0 0.0 0.00 0.00 0.00 54 1010.5
20260501230012 17 15 0.0 0.0 0.00 0.00 0.00 56 1010.5
20260501224514 18 15 0.0 0.0 0.00 0.00 0.00 53 1010.4
20260501223010 18 15 0.0 0.0 0.00 0.00 0.00 57 1010.5
20260501221508 18 15 0.0 0.0 0.00 0.00 0.00 50 1010.8
20260501220010 19 15 0.0 0.0 0.00 0.00 0.00 52 1010.9
20260501214507 19 15 0.0 0.0 0.00 0.00 0.00 49 1011.0
20260501213004 19 15 0.0 0.0 0.00 0.00 0.00 47 1011.2
20260501211503 19 15 0.0 0.0 0.00 0.00 0.00 46 1011.2
20260501210004 19 15 0.0 0.0 0.00 0.00 0.00 46 1011.2
20260501204501 19 15 0.0 0.0 0.00 0.00 0.00 45 1011.3
20260501203108 19 17 0.0 0.0 0.00 0.00 0.00 46 1011.4
20260501201603 20 13 0.0 0.0 0.00 0.00 0.00 43 1011.8
20260501200056 20 13 0.0 0.0 0.00 0.00 0.00 42 1011.9
20260501194554 20 13 0.0 0.0 0.00 0.00 0.00 37 1012.3
20260501193051 20 13 0.0 0.0 0.00 0.00 0.00 41 1012.5
20260501191549 20 13 0.0 0.0 0.00 0.00 0.00 41 1012.7
20260501190044 19 17 0.0 0.0 0.00 0.00 0.00 42 1013.0
20260501184601 18 38 0.0 0.0 0.00 0.00 0.00 42 1013.1